[[{"header":{"parameterUnit":"m.s-1","parameterCategory":1,"la1":30.2991,"la2":30.254,"lo1":-89.0895,"lo2":-89.0444,"dy":0.0017,"dx":0.0017,"nx":28,"ny":28,"refTime":"2025-01-07T03:00:00:Z","depth":0,"parameterNumber":2,"parameterNumberName":"U-component_of_WINDS"},"data":[0,0,0,0,0,0,0,0,0,0,0,0,0,0,0,0,0,0,0,0,0,0,0,0,0,0,0,0,0,0,0,0,0,0,0,0,0,0,0,0,0,0,0,0,0,0,0,0,0,0,0,0,0,0,0,0,0,0,0.114,0.1139,0,0.1098,0.1098,0.1097,0.1091,0.1092,0.1092,0.1093,0.1049,0.1047,0.1046,0,0,0,0,0,0,0,0,0,0,0,0,0,0.1215,0.1214,0.114,0.1139,0.1139,0.1098,0.1098,0.1097,0.1091,0.1092,0.1092,0.1093,0.1049,0.1048,0.1046,0,0,0,0,0,0,0,0,0,0,0,0,0,0.1179,0.1213,0.114,0.1131,0.113,0.1098,0.1097,0.1097,0.1091,0.1092,0.1092,0.1093,0.105,0.1048,0.1046,0.102,0,0,0.1039,0.1038,0,0,0,0,0,0,0,0,0.1181,0.1176,0.1133,0.1132,0.113,0.1101,0.1108,0.1071,0.1091,0.1106,0.1093,0.1093,0.1066,0.1062,0.1053,0.1018,0.1016,0.1038,0.1037,0.1036,0.1035,0,0,0,0,0,0,0,0.1183,0.1178,0.1123,0.1132,0.1131,0.1129,0.1125,0.1101,0.1083,0.1105,0.1104,0.1099,0.1065,0.1055,0.1052,0.1015,0.1038,0.1036,0.1035,0.1034,0.0957,0.0957,0,0,0,0,0,0,0.1187,0.118,0.1125,0.1122,0.1157,0.1127,0.1122,0.1109,0.1083,0.108,0.1099,0.1099,0.1059,0.1055,0.105,0.1018,0.1036,0.1034,0.1033,0.0958,0.0957,0.0956,0,0,0,0,0,0,0.1189,0.1183,0.1126,0.1151,0.1144,0.1126,0.1111,0.1108,0.1098,0.1079,0.1076,0.1092,0.1059,0.1054,0.1028,0.1017,0.1033,0.1031,0.0959,0.0958,0.0957,0.0954,0,0,0,0,0,0,0.1191,0.1183,0.1173,0.1151,0.1142,0.1104,0.111,0.1107,0.1095,0.1095,0.1072,0.1068,0.1059,0.1031,0.1025,0.1014,0.1029,0.096,0.0958,0.0957,0.0955,0.0954,0.0952,0,0,0,0,0,0.1194,0.1173,0.1172,0.1166,0.1129,0.1103,0.1099,0.1089,0.1094,0.1083,0.1071,0.1069,0.1019,0.1028,0.1022,0.101,0.096,0.0959,0.0957,0.0956,0.0954,0.0952,0,0,0,0,0,0,0.1194,0.117,0.1169,0.1141,0.1124,0.1103,0.1089,0.1086,0.1068,0.1069,0.1057,0.1052,0.1027,0.1016,0.1026,0.0984,0.099,0.0987,0.0992,0.0989,0.0988,0.099,0.1027,0,0,0,0,0,0.1191,0.1173,0.1153,0.113,0.1122,0.1107,0.1095,0.1089,0.1072,0.1065,0.105,0.1033,0.1014,0.1001,0.0982,0.0954,0.0949,0.0943,0.0941,0.094,0.0937,0.0922,0.0919,0.0952,0.0952,0.0952,0,0,0.1184,0.1169,0.1158,0.1129,0.1116,0.1097,0.1101,0.108,0.1066,0.1061,0.1036,0.1025,0.1005,0.0979,0.0966,0.0969,0.0928,0.0938,0.0937,0.0935,0.0921,0.0918,0.0915,0.0951,0.0951,0.0951,0,0,0.1162,0.1149,0.1128,0.1115,0.1095,0.1086,0.1081,0.106,0.1053,0.1027,0.1023,0.1007,0.0973,0.096,0.0948,0.0923,0.092,0.0917,0.0907,0.0893,0.0891,0.0888,0.0879,0.0876,0.0915,0.0915,0.0915,0,0.1156,0.1127,0.1118,0.1098,0.1086,0.1082,0.1061,0.1049,0.1023,0.1015,0.1019,0.0977,0.0964,0.0934,0.0928,0.0919,0.0913,0.0919,0.0892,0.0889,0.0887,0.0879,0.0875,0.0914,0.0914,0.0914,0.0914,0,0.1121,0.1101,0.1087,0.1063,0.105,0.103,0.1018,0.1005,0.1001,0.0991,0.0966,0.095,0.0928,0.092,0.0916,0.089,0.0893,0.0894,0.09,0.0884,0.0876,0.0872,0.0914,0.0914,0.0914,0.0914,0,0,0.1096,0.1069,0.1064,0.1053,0.1032,0.1016,0.0996,0.0975,0.0965,0.0948,0.0931,0.0904,0.0906,0.0893,0.0887,0.0874,0.0856,0.0878,0.0877,0.0874,0.0827,0.0826,0.0822,0.0855,0.0854,0.0853,0.0829,0,0.1071,0.1036,0.1027,0.0997,0.0979,0.0975,0.0958,0.0943,0.0934,0.0918,0.0908,0.0888,0.0892,0.0884,0.0872,0.0861,0.0846,0.0862,0.0839,0.0838,0.0843,0.0818,0.0816,0.0794,0.0826,0.0825,0.0825,0,0.1037,0.102,0.0988,0.097,0.0962,0.0946,0.0927,0.0911,0.0895,0.0889,0.0876,0.0871,0.0851,0.0859,0.0831,0.0842,0.0832,0.0825,0.0824,0.0821,0.083,0.0814,0.0786,0.0783,0.082,0.082,0.082,0,0.1022,0.0991,0.0968,0.096,0.0938,0.0927,0.0917,0.0901,0.089,0.0873,0.0865,0.0847,0.0836,0.0822,0.0813,0.0819,0.0785,0.0792,0.078,0.078,0.0772,0.0773,0.0743,0.0767,0.0767,0.0767,0.0767,0,0.0995,0.0975,0.0962,0.0947,0.0925,0.0917,0.0896,0.0886,0.0872,0.0856,0.0852,0.0837,0.0826,0.081,0.0803,0.0781,0.0776,0.0771,0.077,0.0771,0.0772,0.0764,0.0765,0.0766,0.0766,0.0766,0.0767,0,0.0974,0.0964,0.0939,0.0921,0.0916,0.0901,0.0885,0.0871,0.0863,0.0843,0.0838,0.0824,0.0805,0.0795,0.0771,0.0766,0.0742,0.0741,0.0747,0.0746,0.0735,0.0736,0.0698,0.0693,0.0721,0.072,0.072,0,0.0957,0.0942,0.0923,0.0912,0.0902,0.0885,0.0873,0.0865,0.0853,0.0834,0.0822,0.0803,0.0787,0.0757,0.0745,0.0727,0.0725,0.0714,0.0723,0.0725,0.0725,0.0726,0.0725,0.0712,0.0711,0.0711,0.0711,0,0.0928,0.0924,0.0907,0.0889,0.0876,0.0861,0.0847,0.0838,0.0827,0.0814,0.0795,0.0783,0.0759,0.074,0.0721,0.0712,0.0709,0.0709,0.0705,0.0706,0.071,0.0708,0.0742,0.0709,0.0709,0.0709,0.0709,0.071,0.0908,0.0895,0.088,0.0862,0.085,0.0837,0.0823,0.0814,0.0798,0.0778,0.0774,0.0753,0.0738,0.0713,0.0703,0.0687,0.069,0.0684,0.0683,0.0681,0.0681,0.0714,0.0684,0.0684,0.0684,0.0684,0.0684,0,0.0879,0.0869,0.0853,0.0833,0.0819,0.0819,0.0804,0.0792,0.0774,0.076,0.0745,0.0724,0.0706,0.0693,0.0675,0.0665,0.0664,0.066,0.0661,0.0659,0.068,0.0685,0.0662,0.0662,0.0662,0.0662,0.0662,0.0662,0.0862,0.0839,0.0834,0.0807,0.0797,0.0777,0.0768,0.0757,0.0746,0.0722,0.0707,0.0699,0.0686,0.0667,0.0651,0.0648,0.0642,0.0638,0.0635,0.0655,0.0657,0.0659,0.0664,0.0637,0.0637,0.0615,0.0615,0.0615]},{"header":{"parameterUnit":"m.s-1","parameterCategory":1,"la1":30.2991,"la2":30.254,"lo1":-89.0895,"lo2":-89.0444,"dy":0.0017,"dx":0.0017,"nx":28,"ny":28,"refTime":"2025-01-07T03:00:00:Z","depth":0,"parameterNumber":3,"parameterNumberName":"V-component_of_WINDS"},"data":[0,0,0,0,0,0,0,0,0,0,0,0,0,0,0,0,0,0,0,0,0,0,0,0,0,0,0,0,0,0,0,0,0,0,0,0,0,0,0,0,0,0,0,0,0,0,0,0,0,0,0,0,0,0,0,0,0,0,-6.2445,-6.2446,0,-6.2583,-6.2585,-6.2586,-6.2521,-6.2518,-6.2514,-6.2511,-6.2647,-6.2653,-6.266,0,0,0,0,0,0,0,0,0,0,0,0,0,-6.2118,-6.2124,-6.2445,-6.2446,-6.2448,-6.2583,-6.2585,-6.2587,-6.2522,-6.2518,-6.2513,-6.2509,-6.2645,-6.2653,-6.2661,0,0,0,0,0,0,0,0,0,0,0,0,0,-6.2258,-6.2126,-6.2444,-6.2432,-6.2432,-6.2583,-6.2585,-6.2587,-6.2523,-6.2518,-6.2512,-6.2507,-6.2642,-6.2652,-6.2662,-6.283,0,0,-6.2694,-6.2698,0,0,0,0,0,0,0,0,-6.225,-6.227,-6.2432,-6.2433,-6.2434,-6.253,-6.2519,-6.2669,-6.2524,-6.2488,-6.2511,-6.2505,-6.2612,-6.2624,-6.2661,-6.2837,-6.2843,-6.2694,-6.2701,-6.2705,-6.2708,0,0,0,0,0,0,0,-6.2241,-6.2264,-6.2499,-6.2435,-6.2436,-6.2418,-6.2432,-6.2547,-6.2577,-6.2491,-6.2487,-6.2504,-6.2611,-6.2652,-6.2664,-6.2845,-6.2694,-6.2703,-6.271,-6.2714,-6.3163,-6.3169,0,0,0,0,0,0,-6.2232,-6.2256,-6.2495,-6.2503,-6.2328,-6.2428,-6.2444,-6.2504,-6.2576,-6.2582,-6.2509,-6.2501,-6.2637,-6.2652,-6.2669,-6.2869,-6.2705,-6.2715,-6.2721,-6.3157,-6.3164,-6.3171,0,0,0,0,0,0,-6.2225,-6.2254,-6.2489,-6.2379,-6.2407,-6.2439,-6.2507,-6.251,-6.255,-6.2589,-6.2594,-6.2545,-6.2633,-6.2654,-6.2791,-6.2873,-6.2719,-6.2729,-6.3151,-6.316,-6.3167,-6.3273,0,0,0,0,0,0,-6.2216,-6.2252,-6.2318,-6.2381,-6.2414,-6.2611,-6.2513,-6.2516,-6.2569,-6.256,-6.2625,-6.263,-6.2631,-6.2776,-6.2801,-6.2885,-6.2737,-6.3143,-6.3155,-6.3165,-6.3262,-6.3284,-6.3303,0,0,0,0,0,-6.2205,-6.2341,-6.2322,-6.2351,-6.2497,-6.2616,-6.2635,-6.2634,-6.2576,-6.2641,-6.2666,-6.2628,-6.286,-6.279,-6.2818,-6.2906,-6.3138,-6.3151,-6.3164,-6.3253,-6.328,-6.3303,0,0,0,0,0,0,-6.2285,-6.2349,-6.2328,-6.2489,-6.2548,-6.2605,-6.2688,-6.2663,-6.2737,-6.2726,-6.272,-6.2735,-6.2876,-6.2905,-6.2825,-6.3072,-6.299,-6.3009,-6.3048,-6.3074,-6.3094,-6.3084,-6.2745,0,0,0,0,0,-6.2322,-6.2416,-6.2466,-6.2603,-6.2633,-6.2656,-6.2708,-6.2702,-6.2762,-6.2786,-6.2821,-6.2879,-6.2964,-6.3021,-6.3102,-6.3266,-6.3278,-6.334,-6.3361,-6.3377,-6.3393,-6.3481,-6.3509,-6.3213,-6.3213,-6.3213,0,0,-6.2398,-6.2445,-6.2504,-6.262,-6.2665,-6.276,-6.2677,-6.2781,-6.2851,-6.2801,-6.2932,-6.296,-6.3024,-6.3175,-6.3243,-6.3203,-6.3478,-6.3394,-6.3407,-6.3414,-6.3497,-6.3525,-6.355,-6.3222,-6.322,-6.3219,0,0,-6.2585,-6.2631,-6.275,-6.2797,-6.2866,-6.288,-6.2909,-6.297,-6.2987,-6.312,-6.3084,-6.3165,-6.3314,-6.3361,-6.3404,-6.3609,-6.3576,-6.3635,-6.3741,-6.3826,-6.3849,-6.387,-6.3942,-6.3968,-6.3651,-6.3652,-6.3652,0,-6.2671,-6.2815,-6.2813,-6.2921,-6.2972,-6.2933,-6.3052,-6.3097,-6.3189,-6.3225,-6.3179,-6.3364,-6.3404,-6.3565,-6.3615,-6.3652,-6.3682,-6.3627,-6.3847,-6.3867,-6.3886,-6.3955,-6.3982,-6.3658,-6.3657,-6.3657,-6.3656,0,-6.2915,-6.3015,-6.3103,-6.3195,-6.3256,-6.3368,-6.3382,-6.3444,-6.3433,-6.3451,-6.3585,-6.3632,-6.3722,-6.376,-6.375,-6.3919,-6.3892,-6.3847,-6.3764,-6.3921,-6.3985,-6.4011,-6.3668,-6.3665,-6.3663,-6.3662,0,0,-6.3156,-6.3247,-6.3279,-6.3319,-6.3393,-6.347,-6.358,-6.3669,-6.3721,-6.3786,-6.3877,-6.4003,-6.3962,-6.4011,-6.4005,-6.4081,-6.4238,-6.4026,-6.4027,-6.4063,-6.4426,-6.4458,-6.4489,-6.4217,-6.4222,-6.4226,-6.442,0,-6.3348,-6.3543,-6.3545,-6.3724,-6.3815,-6.3779,-6.3875,-6.3929,-6.3949,-6.4028,-6.4048,-6.4138,-6.4077,-6.4107,-6.418,-6.4204,-6.4311,-6.419,-6.4299,-6.4303,-6.4284,-6.4523,-6.4558,-6.4738,-6.4445,-6.4449,-6.4452,0,-6.3598,-6.3672,-6.3861,-6.3921,-6.3959,-6.4046,-6.4127,-6.4204,-6.4264,-6.4273,-6.4328,-6.4311,-6.442,-6.4336,-6.4485,-6.4403,-6.4448,-6.4466,-6.4473,-6.4482,-6.4387,-6.4537,-6.4796,-6.4823,-6.4492,-6.4489,-6.4486,0,-6.3753,-6.3901,-6.4032,-6.4068,-6.4142,-6.4203,-6.4236,-6.4292,-6.4345,-6.4416,-6.445,-6.4532,-6.4576,-6.4639,-6.4644,-6.4582,-6.4794,-6.471,-6.4803,-6.4803,-6.4848,-6.4845,-6.5117,-6.488,-6.4879,-6.4879,-6.4878,0,-6.3967,-6.4083,-6.4103,-6.4184,-6.4312,-6.4312,-6.4439,-6.4466,-6.4516,-6.46,-6.4573,-6.4652,-6.4654,-6.4734,-6.4738,-6.486,-6.4881,-6.4889,-6.4889,-6.4891,-6.489,-6.492,-6.4907,-6.4886,-6.4884,-6.4883,-6.4882,0,-6.4162,-6.418,-6.4321,-6.438,-6.4397,-6.4489,-6.4538,-6.4614,-6.4631,-6.4737,-6.4762,-6.4789,-6.4881,-6.4893,-6.5,-6.5003,-6.515,-6.5137,-6.513,-6.5128,-6.5219,-6.521,-6.5519,-6.5558,-6.5297,-6.5299,-6.5301,0,-6.4296,-6.4385,-6.4454,-6.4509,-6.4546,-6.4635,-6.469,-6.4693,-6.4751,-6.4826,-6.4892,-6.4983,-6.5055,-6.5204,-6.5231,-6.5313,-6.5301,-6.5403,-6.5312,-6.5312,-6.53,-6.5295,-6.5303,-6.542,-6.5423,-6.5425,-6.5427,0,-6.4532,-6.4537,-6.4618,-6.4703,-6.4769,-6.4836,-6.4898,-6.4944,-6.4954,-6.502,-6.5116,-6.5172,-6.5282,-6.5372,-6.5452,-6.5483,-6.5457,-6.5456,-6.5481,-6.5484,-6.5476,-6.548,-6.5177,-6.5448,-6.5446,-6.5445,-6.5444,-6.5443,-6.47,-6.4777,-6.4837,-6.4928,-6.4976,-6.5035,-6.5109,-6.5136,-6.5216,-6.5308,-6.5304,-6.5409,-6.5465,-6.5571,-6.5608,-6.5688,-6.5654,-6.5691,-6.5701,-6.5709,-6.5718,-6.5465,-6.5703,-6.5702,-6.5702,-6.5701,-6.5701,0,-6.4933,-6.4971,-6.5055,-6.5143,-6.5214,-6.5186,-6.5253,-6.5313,-6.5406,-6.5463,-6.5535,-6.5643,-6.573,-6.5764,-6.5848,-6.5906,-6.5895,-6.5927,-6.5922,-6.593,-6.5745,-6.5714,-6.5934,-6.5934,-6.5934,-6.5934,-6.5934,-6.5934,-6.5063,-6.5192,-6.5204,-6.5354,-6.539,-6.5494,-6.5535,-6.5588,-6.5632,-6.5756,-6.5828,-6.5851,-6.5898,-6.5985,-6.6062,-6.607,-6.6101,-6.6138,-6.614,-6.5967,-6.5943,-6.592,-6.5891,-6.6145,-6.6146,-6.6319,-6.632,-6.6321]}]]